Location: Newark
(46.7636°N, 1.8358°W)
Time: 05:14:57
(UTC+00:00)

Vanguard 2 Rocket - Pass Details

Date: 17 October 2019
Orbit: 554 x 3326 km, 32.9° (Epoch: 11 November)

Event Time Altitude Azimuth Distance (km) Brightness Sun altitude
Rises 13:15:20 0° 262° (W) 7,306 11.9 31.0°
Reaches altitude 10° 13:20:34 10° 258° (WSW) 6,273 11.8 30.6°
Maximum altitude 13:38:41 47° 193° (SSW) 3,387 11.4 29.2°
Drops below altitude 10° 13:51:16 10° 125° (SE) 4,470 10.5 28.0°
Sets 13:54:19 0° 119° (ESE) 5,141 10.7 27.8°
